Time,TemperatureF,DewpointF,PressureIn,WindDirection,WindDirectionDegrees,WindSpeedMPH,WindSpeedGustMPH,Humidity,HourlyPrecipIn,Conditions,Clouds,dailyrainin,SoftwareType,DateUTC
2013-08-25 00:00:00,66.3,63.6,30.17,SE,130,3.0,5.0,91,0.00,,---,0.00,VWS V14.00,2013-08-25 05:00:00,
2013-08-25 00:05:00,66.0,63.3,30.17,SE,130,4.0,5.0,91,0.00,,---,0.00,VWS V14.00,2013-08-25 05:05:00,
2013-08-25 00:10:00,65.6,62.9,30.17,SE,130,3.0,4.0,91,0.00,,---,0.00,VWS V14.00,2013-08-25 05:10:00,
2013-08-25 00:15:00,65.6,62.9,30.17,SE,130,3.0,4.0,91,0.00,,---,0.00,VWS V14.00,2013-08-25 05:15:00,
2013-08-25 00:20:00,65.5,62.8,30.17,SE,130,5.0,5.0,91,0.00,,---,0.00,VWS V14.00,2013-08-25 05:20:00,
2013-08-25 00:25:00,65.5,62.8,30.17,SE,130,4.0,4.0,91,0.00,,---,0.00,VWS V14.00,2013-08-25 05:25:00,
2013-08-25 00:30:00,65.3,62.6,30.16,SE,130,4.0,4.0,91,0.00,,---,0.00,VWS V14.00,2013-08-25 05:30:00,
2013-08-25 00:36:00,65.3,62.6,30.16,SE,130,3.0,4.0,91,0.00,,---,0.00,VWS V14.00,2013-08-25 05:36:00,
2013-08-25 00:41:00,65.5,62.8,30.16,SE,130,3.0,4.0,91,0.00,,---,0.00,VWS V14.00,2013-08-25 05:41:00,
2013-08-25 00:46:00,65.5,62.5,30.16,SE,130,4.0,4.0,90,0.00,,---,0.00,VWS V14.00,2013-08-25 05:46:00,
2013-08-25 00:51:00,65.5,62.5,30.16,SE,130,3.0,4.0,90,0.00,,---,0.00,VWS V14.00,2013-08-25 05:51:00,
2013-08-25 00:56:00,65.5,62.2,30.16,SE,130,4.0,5.0,89,0.00,,---,0.00,VWS V14.00,2013-08-25 05:56:00,
2013-08-25 01:01:00,65.2,61.9,30.16,SE,130,3.0,4.0,89,0.00,,---,0.00,VWS V14.00,2013-08-25 06:01:00,
2013-08-25 01:06:00,64.8,61.5,30.16,SE,130,4.0,4.0,89,0.00,,---,0.00,VWS V14.00,2013-08-25 06:06:00,
2013-08-25 01:11:00,64.5,61.2,30.16,SE,130,3.0,4.0,89,0.00,,---,0.00,VWS V14.00,2013-08-25 06:11:00,
2013-08-25 01:16:00,64.5,61.2,30.16,SE,130,4.0,4.0,89,0.00,,---,0.00,VWS V14.00,2013-08-25 06:16:00,
2013-08-25 01:21:00,64.3,60.7,30.16,SE,130,3.0,5.0,88,0.00,,---,0.00,VWS V14.00,2013-08-25 06:21:00,
2013-08-25 01:26:00,64.3,60.3,30.16,SE,130,3.0,4.0,87,0.00,,---,0.00,VWS V14.00,2013-08-25 06:26:00,
2013-08-25 01:31:00,64.2,60.3,30.16,SE,130,2.0,5.0,87,0.00,,---,0.00,VWS V14.00,2013-08-25 06:31:00,
2013-08-25 01:37:00,64.0,60.1,30.16,SE,130,4.0,5.0,87,0.00,,---,0.00,VWS V14.00,2013-08-25 06:37:00,
2013-08-25 01:42:00,64.0,60.1,30.16,SE,130,5.0,5.0,87,0.00,,---,0.00,VWS V14.00,2013-08-25 06:42:00,
2013-08-25 01:47:00,63.9,59.6,30.16,SE,130,2.0,6.0,86,0.00,,---,0.00,VWS V14.00,2013-08-25 06:47:00,
2013-08-25 01:52:00,63.9,59.6,30.16,SE,130,4.0,5.0,86,0.00,,---,0.00,VWS V14.00,2013-08-25 06:52:00,
2013-08-25 01:57:00,63.7,59.4,30.16,SE,130,3.0,4.0,86,0.00,,---,0.00,VWS V14.00,2013-08-25 06:57:00,
2013-08-25 02:02:00,63.7,59.4,30.16,SE,130,3.0,4.0,86,0.00,,---,0.00,VWS V14.00,2013-08-25 07:02:00,
2013-08-25 02:07:00,63.7,59.4,30.16,SE,130,3.0,4.0,86,0.00,,---,0.00,VWS V14.00,2013-08-25 07:07:00,
2013-08-25 02:12:00,63.7,59.4,30.16,SE,130,3.0,3.0,86,0.00,,---,0.00,VWS V14.00,2013-08-25 07:12:00,
2013-08-25 02:17:00,63.7,59.1,30.17,SE,130,3.0,4.0,85,0.00,,---,0.00,VWS V14.00,2013-08-25 07:17:00,
2013-08-25 02:23:00,63.5,59.2,30.17,SE,130,3.0,4.0,86,0.00,,---,0.00,VWS V14.00,2013-08-25 07:23:00,
2013-08-25 02:28:00,63.2,59.0,30.17,SE,130,4.0,4.0,86,0.00,,---,0.00,VWS V14.00,2013-08-25 07:28:00,
2013-08-25 02:33:00,63.2,59.0,30.17,SE,130,3.0,4.0,86,0.00,,---,0.00,VWS V14.00,2013-08-25 07:33:00,
2013-08-25 02:38:00,63.1,59.2,30.17,SE,130,3.0,4.0,87,0.00,,---,0.00,VWS V14.00,2013-08-25 07:38:00,
2013-08-25 02:43:00,63.1,59.2,30.17,SE,130,3.0,4.0,87,0.00,,---,0.00,VWS V14.00,2013-08-25 07:43:00,
2013-08-25 02:48:00,62.9,59.0,30.17,SE,130,4.0,4.0,87,0.00,,---,0.00,VWS V14.00,2013-08-25 07:48:00,
2013-08-25 02:53:00,62.9,59.0,30.17,SE,130,4.0,5.0,87,0.00,,---,0.00,VWS V14.00,2013-08-25 07:53:00,
2013-08-25 02:58:00,62.7,58.8,30.17,SE,130,4.0,4.0,87,0.00,,---,0.00,VWS V14.00,2013-08-25 07:58:00,
2013-08-25 03:04:00,62.7,58.8,30.17,SE,130,3.0,4.0,87,0.00,,---,0.00,VWS V14.00,2013-08-25 08:04:00,
2013-08-25 03:09:00,62.7,58.8,30.17,SE,130,3.0,4.0,87,0.00,,---,0.00,VWS V14.00,2013-08-25 08:09:00,
2013-08-25 03:14:00,62.7,58.8,30.17,SE,130,3.0,4.0,87,0.00,,---,0.00,VWS V14.00,2013-08-25 08:14:00,
2013-08-25 03:19:00,62.7,58.8,30.17,SE,130,3.0,3.0,87,0.00,,---,0.00,VWS V14.00,2013-08-25 08:19:00,
2013-08-25 03:24:00,62.7,58.8,30.17,SE,130,3.0,3.0,87,0.00,,---,0.00,VWS V14.00,2013-08-25 08:24:00,
2013-08-25 03:29:00,62.7,58.8,30.17,SE,130,2.0,3.0,87,0.00,,---,0.00,VWS V14.00,2013-08-25 08:29:00,
2013-08-25 03:34:00,62.7,58.8,30.17,SE,130,1.0,3.0,87,0.00,,---,0.00,VWS V14.00,2013-08-25 08:34:00,
2013-08-25 03:40:00,62.7,58.8,30.17,SE,130,3.0,3.0,87,0.00,,---,0.00,VWS V14.00,2013-08-25 08:40:00,
2013-08-25 03:45:00,62.6,58.7,30.18,SE,130,3.0,4.0,87,0.00,,---,0.00,VWS V14.00,2013-08-25 08:45:00,
2013-08-25 03:50:00,62.6,58.4,30.18,SE,130,2.0,2.0,86,0.00,,---,0.00,VWS V14.00,2013-08-25 08:50:00,
2013-08-25 03:55:00,62.6,58.7,30.18,SE,130,2.0,3.0,87,0.00,,---,0.00,VWS V14.00,2013-08-25 08:55:00,
2013-08-25 04:00:00,62.6,58.4,30.18,SE,130,2.0,3.0,86,0.00,,---,0.00,VWS V14.00,2013-08-25 09:00:00,
2013-08-25 04:05:00,62.6,58.4,30.18,SE,130,0.0,0.0,86,0.00,,---,0.00,VWS V14.00,2013-08-25 09:05:00,
2013-08-25 04:10:00,62.6,58.4,30.18,SE,130,0.0,0.0,86,0.00,,---,0.00,VWS V14.00,2013-08-25 09:10:00,
2013-08-25 04:15:00,62.6,58.7,30.18,SE,130,0.0,0.0,87,0.00,,---,0.00,VWS V14.00,2013-08-25 09:15:00,
2013-08-25 04:21:00,62.6,58.7,30.18,SE,130,2.0,3.0,87,0.00,,---,0.00,VWS V14.00,2013-08-25 09:21:00,
2013-08-25 04:26:00,62.6,58.7,30.18,SE,130,1.0,2.0,87,0.00,,---,0.00,VWS V14.00,2013-08-25 09:26:00,
2013-08-25 04:31:00,62.6,58.7,30.18,SE,130,0.0,2.0,87,0.00,,---,0.00,VWS V14.00,2013-08-25 09:31:00,
2013-08-25 04:36:00,62.4,58.5,30.18,SE,130,2.0,3.0,87,0.00,,---,0.00,VWS V14.00,2013-08-25 09:36:00,
2013-08-25 04:41:00,62.4,58.8,30.18,SE,130,2.0,2.0,88,0.00,,---,0.00,VWS V14.00,2013-08-25 09:41:00,
2013-08-25 04:46:00,62.4,58.8,30.18,SE,130,2.0,2.0,88,0.00,,---,0.00,VWS V14.00,2013-08-25 09:46:00,
2013-08-25 04:51:00,62.4,58.8,30.18,SE,130,1.0,2.0,88,0.00,,---,0.00,VWS V14.00,2013-08-25 09:51:00,
2013-08-25 04:56:00,62.4,58.8,30.18,SE,130,0.0,0.0,88,0.00,,---,0.00,VWS V14.00,2013-08-25 09:56:00,
2013-08-25 05:01:00,62.4,58.8,30.19,SE,130,0.0,0.0,88,0.00,,---,0.00,VWS V14.00,2013-08-25 10:01:00,
2013-08-25 05:06:00,62.3,58.7,30.19,SE,130,0.0,0.0,88,0.00,,---,0.00,VWS V14.00,2013-08-25 10:06:00,
2013-08-25 05:11:00,62.1,58.8,30.19,SE,130,0.0,0.0,89,0.00,,---,0.00,VWS V14.00,2013-08-25 10:11:00,
2013-08-25 05:16:00,62.0,58.7,30.19,SE,130,0.0,0.0,89,0.00,,---,0.00,VWS V14.00,2013-08-25 10:16:00,
2013-08-25 05:21:00,62.0,58.7,30.19,SE,130,0.0,0.0,89,0.00,,---,0.00,VWS V14.00,2013-08-25 10:21:00,
2013-08-25 05:26:00,61.8,58.5,30.19,SE,130,0.0,0.0,89,0.00,,---,0.00,VWS V14.00,2013-08-25 10:26:00,
2013-08-25 05:31:00,61.6,58.3,30.19,SE,130,0.0,0.0,89,0.00,,---,0.00,VWS V14.00,2013-08-25 10:31:00,
2013-08-25 05:36:00,61.6,58.3,30.19,SE,130,0.0,0.0,89,0.00,,---,0.00,VWS V14.00,2013-08-25 10:36:00,
2013-08-25 05:42:00,61.5,58.5,30.19,SE,130,0.0,0.0,90,0.00,,---,0.00,VWS V14.00,2013-08-25 10:42:00,
2013-08-25 05:47:00,61.5,58.5,30.20,SE,130,0.0,0.0,90,0.00,,---,0.00,VWS V14.00,2013-08-25 10:47:00,
2013-08-25 05:52:00,61.5,58.5,30.20,SE,130,0.0,0.0,90,0.00,,---,0.00,VWS V14.00,2013-08-25 10:52:00,
2013-08-25 05:57:00,61.3,58.3,30.20,SE,130,0.0,0.0,90,0.00,,---,0.00,VWS V14.00,2013-08-25 10:57:00,
2013-08-25 06:02:00,61.3,58.7,30.20,SE,130,0.0,0.0,91,0.00,,---,0.00,VWS V14.00,2013-08-25 11:02:00,
2013-08-25 06:07:00,61.2,58.6,30.20,SE,130,0.0,0.0,91,0.00,,---,0.00,VWS V14.00,2013-08-25 11:07:00,
2013-08-25 06:12:00,61.0,58.4,30.20,SE,130,0.0,0.0,91,0.00,,---,0.00,VWS V14.00,2013-08-25 11:12:00,
2013-08-25 06:17:00,61.0,58.7,30.21,SE,130,0.0,0.0,92,0.00,,---,0.00,VWS V14.00,2013-08-25 11:17:00,
2013-08-25 06:23:00,61.0,58.7,30.21,SE,130,0.0,0.0,92,0.00,,---,0.00,VWS V14.00,2013-08-25 11:23:00,
2013-08-25 06:28:00,61.2,58.9,30.21,SE,130,0.0,0.0,92,0.00,,---,0.00,VWS V14.00,2013-08-25 11:28:00,
2013-08-25 06:33:00,61.2,58.9,30.21,SE,130,0.0,0.0,92,0.00,,---,0.00,VWS V14.00,2013-08-25 11:33:00,
2013-08-25 06:38:00,61.3,59.0,30.21,SE,130,0.0,0.0,92,0.00,,---,0.00,VWS V14.00,2013-08-25 11:38:00,
2013-08-25 06:43:00,61.3,59.3,30.21,SE,130,0.0,0.0,93,0.00,,---,0.00,VWS V14.00,2013-08-25 11:43:00,
2013-08-25 06:48:00,61.3,59.3,30.22,SE,130,0.0,0.0,93,0.00,,---,0.00,VWS V14.00,2013-08-25 11:48:00,
2013-08-25 06:53:00,61.5,59.5,30.22,SE,130,0.0,0.0,93,0.00,,---,0.00,VWS V14.00,2013-08-25 11:53:00,
2013-08-25 06:58:00,61.6,59.6,30.22,SE,130,0.0,0.0,93,0.00,,---,0.00,VWS V14.00,2013-08-25 11:58:00,
2013-08-25 07:04:00,61.8,60.1,30.21,SE,130,0.0,0.0,94,0.00,,---,0.00,VWS V14.00,2013-08-25 12:04:00,
2013-08-25 07:09:00,62.1,60.4,30.21,SE,130,0.0,0.0,94,0.00,,---,0.00,VWS V14.00,2013-08-25 12:09:00,
2013-08-25 07:14:00,62.4,60.7,30.21,SE,130,0.0,0.0,94,0.00,,---,0.00,VWS V14.00,2013-08-25 12:14:00,
2013-08-25 07:19:00,62.9,61.5,30.22,SE,130,0.0,0.0,95,0.00,,---,0.00,VWS V14.00,2013-08-25 12:19:00,
2013-08-25 07:24:00,63.2,61.8,30.22,SE,130,2.0,2.0,95,0.00,,---,0.00,VWS V14.00,2013-08-25 12:24:00,
2013-08-25 07:29:00,63.7,62.2,30.22,SE,130,0.0,2.0,95,0.00,,---,0.00,VWS V14.00,2013-08-25 12:29:00,
2013-08-25 07:34:00,64.2,62.7,30.23,SE,130,0.0,2.0,95,0.00,,---,0.00,VWS V14.00,2013-08-25 12:34:00,
2013-08-25 07:39:00,64.7,63.2,30.23,SE,130,1.0,2.0,95,0.00,,---,0.00,VWS V14.00,2013-08-25 12:39:00,
2013-08-25 07:44:00,65.0,63.5,30.23,SE,130,0.0,0.0,95,0.00,,---,0.00,VWS V14.00,2013-08-25 12:44:00,
2013-08-25 07:50:00,65.5,63.7,30.23,SE,130,0.0,0.0,94,0.00,,---,0.00,VWS V14.00,2013-08-25 12:50:00,
2013-08-25 07:55:00,66.0,64.2,30.23,SE,130,0.0,0.0,94,0.00,,---,0.00,VWS V14.00,2013-08-25 12:55:00,
2013-08-25 08:00:00,66.4,64.3,30.23,SE,130,2.0,3.0,93,0.00,,---,0.00,VWS V14.00,2013-08-25 13:00:00,
2013-08-25 08:05:00,66.9,64.8,30.23,SE,130,0.0,2.0,93,0.00,,---,0.00,VWS V14.00,2013-08-25 13:05:00,
2013-08-25 08:10:00,67.3,64.9,30.23,SE,130,3.0,3.0,92,0.00,,---,0.00,VWS V14.00,2013-08-25 13:10:00,
2013-08-25 08:15:00,67.8,64.8,30.23,SE,130,3.0,4.0,90,0.00,,---,0.00,VWS V14.00,2013-08-25 13:15:00,
2013-08-25 08:20:00,68.4,65.4,30.23,SE,130,2.0,4.0,90,0.00,,---,0.00,VWS V14.00,2013-08-25 13:20:00,
2013-08-25 08:26:00,68.9,65.5,30.23,SE,130,1.0,4.0,89,0.00,,---,0.00,VWS V14.00,2013-08-25 13:26:00,
2013-08-25 08:31:00,69.6,65.9,30.23,SE,130,0.0,3.0,88,0.00,,---,0.00,VWS V14.00,2013-08-25 13:31:00,
2013-08-25 08:36:00,70.4,66.0,30.23,SE,130,1.0,3.0,86,0.00,,---,0.00,VWS V14.00,2013-08-25 13:36:00,
2013-08-25 08:41:00,70.9,66.2,30.23,SE,130,1.0,3.0,85,0.00,,---,0.00,VWS V14.00,2013-08-25 13:41:00,
2013-08-25 08:46:00,71.5,65.7,30.22,SE,130,1.0,2.0,82,0.00,,---,0.00,VWS V14.00,2013-08-25 13:46:00,
2013-08-25 08:51:00,72.0,65.9,30.22,SE,130,3.0,5.0,81,0.00,,---,0.00,VWS V14.00,2013-08-25 13:51:00,
2013-08-25 08:56:00,72.5,65.6,30.22,SE,130,2.0,5.0,79,0.00,,---,0.00,VWS V14.00,2013-08-25 13:56:00,
2013-08-25 09:01:00,72.8,64.8,30.22,SE,130,0.0,4.0,76,0.00,,---,0.00,VWS V14.00,2013-08-25 14:01:00,
2013-08-25 09:06:00,73.3,66.0,30.22,SE,130,4.0,6.0,78,0.00,,---,0.00,VWS V14.00,2013-08-25 14:06:00,
2013-08-25 09:11:00,73.9,66.2,30.22,SE,130,5.0,5.0,77,0.00,,---,0.00,VWS V14.00,2013-08-25 14:11:00,
2013-08-25 09:16:00,74.0,65.2,30.22,SE,132,3.0,5.0,74,0.00,,---,0.00,VWS V14.00,2013-08-25 14:16:00,
2013-08-25 09:21:00,74.2,65.0,30.22,SSE,155,5.0,6.0,73,0.00,,---,0.00,VWS V14.00,2013-08-25 14:21:00,
2013-08-25 09:26:00,74.6,65.0,30.22,South,173,7.0,10.0,72,0.00,,---,0.00,VWS V14.00,2013-08-25 14:26:00,
2013-08-25 09:32:00,75.1,65.9,30.22,South,173,4.0,7.0,73,0.00,,---,0.00,VWS V14.00,2013-08-25 14:32:00,
2013-08-25 09:37:00,75.3,65.7,30.22,South,175,3.0,7.0,72,0.00,,---,0.00,VWS V14.00,2013-08-25 14:37:00,
2013-08-25 09:42:00,75.8,66.1,30.22,South,175,4.0,5.0,72,0.00,,---,0.00,VWS V14.00,2013-08-25 14:42:00,
2013-08-25 09:47:00,76.3,66.6,30.22,South,175,2.0,7.0,72,0.00,,---,0.00,VWS V14.00,2013-08-25 14:47:00,
2013-08-25 09:52:00,76.5,66.0,30.22,South,178,2.0,6.0,70,0.00,,---,0.00,VWS V14.00,2013-08-25 14:52:00,
2013-08-25 09:57:00,76.7,66.6,30.22,SSW,194,6.0,6.0,71,0.00,,---,0.00,VWS V14.00,2013-08-25 14:57:00,
2013-08-25 10:02:00,77.0,67.3,30.22,SSW,195,4.0,6.0,72,0.00,,---,0.00,VWS V14.00,2013-08-25 15:02:00,
2013-08-25 10:08:00,77.4,66.9,30.22,SSW,195,3.0,6.0,70,0.00,,---,0.00,VWS V14.00,2013-08-25 15:08:00,
2013-08-25 10:13:00,77.6,67.1,30.22,SSW,195,5.0,5.0,70,0.00,,---,0.00,VWS V14.00,2013-08-25 15:13:00,
2013-08-25 10:18:00,78.1,67.5,30.22,SSW,195,6.0,7.0,70,0.00,,---,0.00,VWS V14.00,2013-08-25 15:18:00,
2013-08-25 10:23:00,78.5,67.5,30.22,SSW,195,5.0,7.0,69,0.00,,---,0.00,VWS V14.00,2013-08-25 15:23:00,
2013-08-25 10:28:00,78.6,67.2,30.22,SSW,196,5.0,7.0,68,0.00,,---,0.00,VWS V14.00,2013-08-25 15:28:00,
2013-08-25 10:33:00,79.0,68.0,30.22,SSW,196,1.0,3.0,69,0.00,,---,0.00,VWS V14.00,2013-08-25 15:33:00,
2013-08-25 10:38:00,79.4,67.9,30.22,SSW,196,6.0,7.0,68,0.00,,---,0.00,VWS V14.00,2013-08-25 15:38:00,
2013-08-25 10:43:00,79.8,67.9,30.22,SSW,196,3.0,6.0,67,0.00,,---,0.00,VWS V14.00,2013-08-25 15:43:00,
2013-08-25 10:49:00,79.9,67.5,30.22,SSW,197,6.0,10.0,66,0.00,,---,0.00,VWS V14.00,2013-08-25 15:49:00,
2013-08-25 10:54:00,79.9,68.0,30.22,SSW,197,3.0,7.0,67,0.00,,---,0.00,VWS V14.00,2013-08-25 15:54:00,
2013-08-25 10:59:00,79.9,67.1,30.22,SSW,199,7.0,7.0,65,0.00,,---,0.00,VWS V14.00,2013-08-25 15:59:00,
2013-08-25 11:04:00,80.1,66.4,30.22,SSW,203,4.0,7.0,63,0.00,,---,0.00,VWS V14.00,2013-08-25 16:04:00,
2013-08-25 11:09:00,80.3,67.0,30.22,SSW,205,5.0,8.0,64,0.00,,---,0.00,VWS V14.00,2013-08-25 16:09:00,
2013-08-25 11:14:00,80.5,67.2,30.22,SSW,209,3.0,7.0,64,0.00,,---,0.00,VWS V14.00,2013-08-25 16:14:00,
2013-08-25 11:19:00,80.7,66.9,30.21,SSW,209,2.0,5.0,63,0.00,,---,0.00,VWS V14.00,2013-08-25 16:19:00,
2013-08-25 11:24:00,80.9,67.6,30.21,SSW,209,6.0,9.0,64,0.00,,---,0.00,VWS V14.00,2013-08-25 16:24:00,
2013-08-25 11:30:00,81.1,68.7,30.21,SSW,209,2.0,6.0,66,0.00,,---,0.00,VWS V14.00,2013-08-25 16:30:00,
2013-08-25 11:35:00,81.2,66.5,30.21,SSW,205,9.0,10.0,61,0.00,,---,0.00,VWS V14.00,2013-08-25 16:35:00,
2013-08-25 11:40:00,81.2,65.0,30.21,SSW,211,2.0,10.0,58,0.00,,---,0.00,VWS V14.00,2013-08-25 16:40:00,
2013-08-25 11:45:00,81.2,65.0,30.21,SW,221,6.0,10.0,58,0.00,,---,0.00,VWS V14.00,2013-08-25 16:45:00,
2013-08-25 11:50:00,81.1,65.9,30.21,SW,224,3.0,6.0,60,0.00,,---,0.00,VWS V14.00,2013-08-25 16:50:00,
2013-08-25 11:55:00,81.2,64.5,30.21,SW,225,2.0,7.0,57,0.00,,---,0.00,VWS V14.00,2013-08-25 16:55:00,
2013-08-25 12:00:00,81.8,67.1,30.20,SW,225,6.0,7.0,61,0.00,,---,0.00,VWS V14.00,2013-08-25 17:00:00,
2013-08-25 12:06:00,82.2,66.9,30.20,SW,225,4.0,6.0,60,0.00,,---,0.00,VWS V14.00,2013-08-25 17:06:00,
2013-08-25 12:11:00,82.4,65.7,30.20,SW,225,4.0,5.0,57,0.00,,---,0.00,VWS V14.00,2013-08-25 17:11:00,
2013-08-25 12:16:00,82.4,66.2,30.20,SW,226,5.0,5.0,58,0.00,,---,0.00,VWS V14.00,2013-08-25 17:16:00,
2013-08-25 12:21:00,82.4,65.7,30.20,SW,226,4.0,5.0,57,0.00,,---,0.00,VWS V14.00,2013-08-25 17:21:00,
2013-08-25 12:26:00,82.8,68.5,30.20,SW,226,1.0,5.0,62,0.00,,---,0.00,VWS V14.00,2013-08-25 17:26:00,
2013-08-25 12:31:00,83.2,66.4,30.19,SW,226,4.0,6.0,57,0.00,,---,0.00,VWS V14.00,2013-08-25 17:31:00,
2013-08-25 12:36:00,83.0,67.2,30.19,SW,226,3.0,6.0,59,0.00,,---,0.00,VWS V14.00,2013-08-25 17:36:00,
2013-08-25 12:41:00,83.4,67.1,30.19,SSW,207,6.0,8.0,58,0.00,,---,0.00,VWS V14.00,2013-08-25 17:41:00,
2013-08-25 12:46:00,83.4,66.6,30.19,SSW,207,4.0,6.0,57,0.00,,---,0.00,VWS V14.00,2013-08-25 17:46:00,
2013-08-25 12:51:00,83.2,66.4,30.19,SSW,209,4.0,5.0,57,0.00,,---,0.00,VWS V14.00,2013-08-25 17:51:00,
2013-08-25 12:56:00,83.2,66.9,30.19,SSW,213,1.0,3.0,58,0.00,,---,0.00,VWS V14.00,2013-08-25 17:56:00,
2013-08-25 13:01:00,83.8,68.4,30.19,SSW,212,3.0,4.0,60,0.00,,---,0.00,VWS V14.00,2013-08-25 18:01:00,
2013-08-25 13:06:00,84.0,66.6,30.19,SSW,213,6.0,7.0,56,0.00,,---,0.00,VWS V14.00,2013-08-25 18:06:00,
2013-08-25 13:11:00,83.8,67.5,30.19,SW,214,4.0,8.0,58,0.00,,---,0.00,VWS V14.00,2013-08-25 18:11:00,
2013-08-25 13:16:00,83.6,66.3,30.19,SW,218,2.0,6.0,56,0.00,,---,0.00,VWS V14.00,2013-08-25 18:16:00,
2013-08-25 13:21:00,83.6,66.3,30.19,SW,218,2.0,4.0,56,0.00,,---,0.00,VWS V14.00,2013-08-25 18:21:00,
2013-08-25 13:26:00,84.0,66.1,30.19,SW,218,5.0,7.0,55,0.00,,---,0.00,VWS V14.00,2013-08-25 18:26:00,
2013-08-25 13:32:00,83.8,63.8,30.18,SW,218,1.0,5.0,51,0.00,,---,0.00,VWS V14.00,2013-08-25 18:32:00,
2013-08-25 13:37:00,84.0,66.1,30.18,SW,215,0.0,7.0,55,0.00,,---,0.00,VWS V14.00,2013-08-25 18:37:00,
2013-08-25 13:42:00,84.0,66.1,30.18,SW,217,0.0,5.0,55,0.00,,---,0.00,VWS V14.00,2013-08-25 18:42:00,
2013-08-25 13:47:00,84.0,65.1,30.18,SW,217,0.0,5.0,53,0.00,,---,0.00,VWS V14.00,2013-08-25 18:47:00,
2013-08-25 13:52:00,84.3,66.9,30.18,SW,217,5.0,5.0,56,0.00,,---,0.00,VWS V14.00,2013-08-25 18:52:00,
2013-08-25 13:57:00,84.7,65.7,30.18,SW,217,1.0,4.0,53,0.00,,---,0.00,VWS V14.00,2013-08-25 18:57:00,
2013-08-25 14:02:00,85.1,68.7,30.18,SW,217,1.0,4.0,58,0.00,,---,0.00,VWS V14.00,2013-08-25 19:02:00,
2013-08-25 14:07:00,85.3,66.2,30.18,SW,217,4.0,6.0,53,0.00,,---,0.00,VWS V14.00,2013-08-25 19:07:00,
2013-08-25 14:13:00,85.3,67.8,30.18,SW,217,1.0,5.0,56,0.00,,---,0.00,VWS V14.00,2013-08-25 19:13:00,
2013-08-25 14:18:00,85.3,68.9,30.17,SW,217,3.0,4.0,58,0.00,,---,0.00,VWS V14.00,2013-08-25 19:18:00,
2013-08-25 14:23:00,85.3,67.3,30.17,SSW,209,2.0,3.0,55,0.00,,---,0.00,VWS V14.00,2013-08-25 19:23:00,
2013-08-25 14:28:00,85.3,67.8,30.17,SSW,207,1.0,4.0,56,0.00,,---,0.00,VWS V14.00,2013-08-25 19:28:00,
2013-08-25 14:33:00,85.5,67.0,30.17,SSW,207,4.0,4.0,54,0.00,,---,0.00,VWS V14.00,2013-08-25 19:33:00,
2013-08-25 14:38:00,85.7,66.6,30.17,SSW,207,0.0,7.0,53,0.00,,---,0.00,VWS V14.00,2013-08-25 19:38:00,
2013-08-25 14:43:00,85.7,67.7,30.17,SSW,207,3.0,4.0,55,0.00,,---,0.00,VWS V14.00,2013-08-25 19:43:00,
2013-08-25 14:48:00,85.7,68.2,30.16,SSW,207,2.0,6.0,56,0.00,,---,0.00,VWS V14.00,2013-08-25 19:48:00,
2013-08-25 14:54:00,85.5,65.9,30.16,SSW,206,1.0,3.0,52,0.00,,---,0.00,VWS V14.00,2013-08-25 19:54:00,
2013-08-25 14:59:00,85.7,66.1,30.16,SSW,206,1.0,1.0,52,0.00,,---,0.00,VWS V14.00,2013-08-25 19:59:00,
2013-08-25 15:04:00,85.7,66.6,30.16,SSW,206,0.0,6.0,53,0.00,,---,0.00,VWS V14.00,2013-08-25 20:04:00,
2013-08-25 15:09:00,85.7,68.2,30.16,SSW,206,0.0,5.0,56,0.00,,---,0.00,VWS V14.00,2013-08-25 20:09:00,
2013-08-25 15:14:00,85.5,66.4,30.16,SSW,204,3.0,6.0,53,0.00,,---,0.00,VWS V14.00,2013-08-25 20:14:00,
2013-08-25 15:19:00,85.1,66.1,30.16,SSW,203,1.0,5.0,53,0.00,,---,0.00,VWS V14.00,2013-08-25 20:19:00,
2013-08-25 15:24:00,85.5,67.5,30.16,SSW,205,4.0,7.0,55,0.00,,---,0.00,VWS V14.00,2013-08-25 20:24:00,
2013-08-25 15:29:00,85.7,68.2,30.16,SSW,205,4.0,5.0,56,0.00,,---,0.00,VWS V14.00,2013-08-25 20:29:00,
2013-08-25 15:35:00,85.7,68.2,30.16,SSW,205,1.0,2.0,56,0.00,,---,0.00,VWS V14.00,2013-08-25 20:35:00,
2013-08-25 15:40:00,85.9,66.8,30.16,SSW,205,1.0,5.0,53,0.00,,---,0.00,VWS V14.00,2013-08-25 20:40:00,
2013-08-25 15:45:00,86.1,67.5,30.16,SSW,204,1.0,1.0,54,0.00,,---,0.00,VWS V14.00,2013-08-25 20:45:00,
2013-08-25 15:50:00,85.5,67.0,30.16,SSW,196,0.0,1.0,54,0.00,,---,0.00,VWS V14.00,2013-08-25 20:50:00,
2013-08-25 15:55:00,85.7,66.6,30.16,SSW,196,1.0,2.0,53,0.00,,---,0.00,VWS V14.00,2013-08-25 20:55:00,
2013-08-25 16:00:00,85.5,66.4,30.15,SSW,196,3.0,6.0,53,0.00,,---,0.00,VWS V14.00,2013-08-25 21:00:00,
2013-08-25 16:05:00,85.1,68.2,30.15,SSW,196,1.0,3.0,57,0.00,,---,0.00,VWS V14.00,2013-08-25 21:05:00,
2013-08-25 16:10:00,85.3,66.8,30.15,SSW,196,2.0,4.0,54,0.00,,---,0.00,VWS V14.00,2013-08-25 21:10:00,
2013-08-25 16:15:00,85.3,67.3,30.15,SSW,196,2.0,5.0,55,0.00,,---,0.00,VWS V14.00,2013-08-25 21:15:00,
2013-08-25 16:20:00,85.5,66.4,30.15,SSW,196,3.0,5.0,53,0.00,,---,0.00,VWS V14.00,2013-08-25 21:20:00,
2013-08-25 16:25:00,85.5,66.4,30.15,SSW,196,1.0,3.0,53,0.00,,---,0.00,VWS V14.00,2013-08-25 21:25:00,
2013-08-25 16:30:00,85.3,66.2,30.15,SSW,207,2.0,2.0,53,0.00,,---,0.00,VWS V14.00,2013-08-25 21:30:00,
2013-08-25 16:35:00,85.3,66.2,30.15,SSW,207,0.0,4.0,53,0.00,,---,0.00,VWS V14.00,2013-08-25 21:35:00,
2013-08-25 16:41:00,85.1,66.6,30.15,SSW,207,6.0,6.0,54,0.00,,---,0.00,VWS V14.00,2013-08-25 21:41:00,
2013-08-25 16:46:00,84.7,65.7,30.15,SSW,207,2.0,5.0,53,0.00,,---,0.00,VWS V14.00,2013-08-25 21:46:00,
2013-08-25 16:51:00,84.7,67.3,30.15,SSW,202,2.0,6.0,56,0.00,,---,0.00,VWS V14.00,2013-08-25 21:51:00,
2013-08-25 16:56:00,84.7,65.7,30.15,SSW,202,2.0,5.0,53,0.00,,---,0.00,VWS V14.00,2013-08-25 21:56:00,
2013-08-25 17:01:00,84.7,67.3,30.14,SSW,202,0.0,2.0,56,0.00,,---,0.00,VWS V14.00,2013-08-25 22:01:00,
2013-08-25 17:06:00,84.7,66.8,30.14,SSW,200,1.0,6.0,55,0.00,,---,0.00,VWS V14.00,2013-08-25 22:06:00,
2013-08-25 17:11:00,84.1,66.2,30.14,SSW,199,2.0,3.0,55,0.00,,---,0.00,VWS V14.00,2013-08-25 22:11:00,
2013-08-25 17:16:00,84.0,67.7,30.14,SSW,199,4.0,5.0,58,0.00,,---,0.00,VWS V14.00,2013-08-25 22:16:00,
2013-08-25 17:21:00,84.1,66.7,30.14,SSW,200,3.0,8.0,56,0.00,,---,0.00,VWS V14.00,2013-08-25 22:21:00,
2013-08-25 17:26:00,84.1,67.7,30.14,SSW,199,2.0,2.0,58,0.00,,---,0.00,VWS V14.00,2013-08-25 22:26:00,
2013-08-25 17:31:00,83.8,67.0,30.15,SSW,199,0.0,1.0,57,0.00,,---,0.00,VWS V14.00,2013-08-25 22:31:00,
2013-08-25 17:36:00,83.8,65.9,30.15,SSW,199,5.0,5.0,55,0.00,,---,0.00,VWS V14.00,2013-08-25 22:36:00,
2013-08-25 17:41:00,83.8,67.0,30.15,SSW,199,1.0,4.0,57,0.00,,---,0.00,VWS V14.00,2013-08-25 22:41:00,
2013-08-25 17:46:00,83.6,66.8,30.15,SSW,199,1.0,2.0,57,0.00,,---,0.00,VWS V14.00,2013-08-25 22:46:00,
2013-08-25 17:51:00,83.2,67.4,30.15,SSW,199,2.0,4.0,59,0.00,,---,0.00,VWS V14.00,2013-08-25 22:51:00,
2013-08-25 17:56:00,82.6,66.8,30.15,SSW,199,0.0,4.0,59,0.00,,---,0.00,VWS V14.00,2013-08-25 22:56:00,
2013-08-25 18:01:00,82.4,67.6,30.15,SSW,199,0.0,1.0,61,0.00,,---,0.00,VWS V14.00,2013-08-25 23:01:00,
2013-08-25 18:06:00,81.8,67.1,30.15,SSW,199,1.0,3.0,61,0.00,,---,0.00,VWS V14.00,2013-08-25 23:06:00,
2013-08-25 18:11:00,81.4,67.1,30.15,SSW,199,0.0,0.0,62,0.00,,---,0.00,VWS V14.00,2013-08-25 23:11:00,
2013-08-25 18:16:00,81.1,67.3,30.15,SSW,199,1.0,2.0,63,0.00,,---,0.00,VWS V14.00,2013-08-25 23:16:00,
2013-08-25 18:21:00,80.7,67.4,30.15,SSW,199,0.0,0.0,64,0.00,,---,0.00,VWS V14.00,2013-08-25 23:21:00,
2013-08-25 18:26:00,80.5,67.7,30.15,SSW,199,0.0,0.0,65,0.00,,---,0.00,VWS V14.00,2013-08-25 23:26:00,
2013-08-25 18:31:00,80.1,67.7,30.14,SSW,199,0.0,0.0,66,0.00,,---,0.00,VWS V14.00,2013-08-25 23:31:00,
2013-08-25 18:36:00,79.6,67.2,30.14,SSW,199,0.0,0.0,66,0.00,,---,0.00,VWS V14.00,2013-08-25 23:36:00,
2013-08-25 18:42:00,79.2,67.3,30.14,SSW,199,0.0,0.0,67,0.00,,---,0.00,VWS V14.00,2013-08-25 23:42:00,
2013-08-25 18:47:00,78.6,67.6,30.13,SSW,199,0.0,0.0,69,0.00,,---,0.00,VWS V14.00,2013-08-25 23:47:00,
2013-08-25 18:52:00,78.1,67.1,30.13,SSW,199,0.0,0.0,69,0.00,,---,0.00,VWS V14.00,2013-08-25 23:52:00,
2013-08-25 18:57:00,77.6,66.6,30.13,SSW,199,0.0,0.0,69,0.00,,---,0.00,VWS V14.00,2013-08-25 23:57:00,
2013-08-25 19:02:00,77.2,66.2,30.14,SSW,199,0.0,0.0,69,0.00,,---,0.00,VWS V14.00,2013-08-26 00:02:00,
2013-08-25 19:07:00,76.8,65.9,30.14,SSW,199,0.0,0.0,69,0.00,,---,0.00,VWS V14.00,2013-08-26 00:07:00,
2013-08-25 19:12:00,76.5,65.6,30.14,SSW,199,0.0,0.0,69,0.00,,---,0.00,VWS V14.00,2013-08-26 00:12:00,
2013-08-25 19:18:00,76.1,65.2,30.13,SSW,199,0.0,0.0,69,0.00,,---,0.00,VWS V14.00,2013-08-26 00:18:00,
2013-08-25 19:23:00,76.0,65.1,30.13,SSW,199,0.0,0.0,69,0.00,,---,0.00,VWS V14.00,2013-08-26 00:23:00,
2013-08-25 19:28:00,75.8,64.9,30.13,SSW,199,0.0,0.0,69,0.00,,---,0.00,VWS V14.00,2013-08-26 00:28:00,
2013-08-25 19:33:00,75.4,64.5,30.13,SSW,199,0.0,0.0,69,0.00,,---,0.00,VWS V14.00,2013-08-26 00:33:00,
2013-08-25 19:38:00,75.3,64.8,30.13,SSW,199,0.0,0.0,70,0.00,,---,0.00,VWS V14.00,2013-08-26 00:38:00,
2013-08-25 19:43:00,74.9,64.9,30.13,SSW,199,0.0,0.0,71,0.00,,---,0.00,VWS V14.00,2013-08-26 00:43:00,
2013-08-25 19:48:00,74.4,64.4,30.14,SSW,199,0.0,0.0,71,0.00,,---,0.00,VWS V14.00,2013-08-26 00:48:00,
2013-08-25 19:53:00,74.2,64.2,30.14,SSW,199,0.0,0.0,71,0.00,,---,0.00,VWS V14.00,2013-08-26 00:53:00,
2013-08-25 19:59:00,73.7,64.1,30.14,SSW,199,0.0,0.0,72,0.00,,---,0.00,VWS V14.00,2013-08-26 00:59:00,
2013-08-25 20:04:00,73.3,64.5,30.14,SSW,199,0.0,0.0,74,0.00,,---,0.00,VWS V14.00,2013-08-26 01:04:00,
2013-08-25 20:09:00,72.8,64.4,30.14,SSW,199,0.0,0.0,75,0.00,,---,0.00,VWS V14.00,2013-08-26 01:09:00,
2013-08-25 20:14:00,72.5,64.5,30.14,SSW,199,0.0,0.0,76,0.00,,---,0.00,VWS V14.00,2013-08-26 01:14:00,
2013-08-25 20:19:00,72.0,64.8,30.13,SSW,199,0.0,0.0,78,0.00,,---,0.00,VWS V14.00,2013-08-26 01:19:00,
2013-08-25 20:24:00,71.6,64.8,30.13,SSW,199,0.0,0.0,79,0.00,,---,0.00,VWS V14.00,2013-08-26 01:24:00,
2013-08-25 20:29:00,71.3,64.8,30.13,SSW,199,0.0,0.0,80,0.00,,---,0.00,VWS V14.00,2013-08-26 01:29:00,
2013-08-25 20:34:00,70.9,64.4,30.14,SSW,199,0.0,0.0,80,0.00,,---,0.00,VWS V14.00,2013-08-26 01:34:00,
2013-08-25 20:40:00,70.8,64.7,30.14,SSW,199,0.0,0.0,81,0.00,,---,0.00,VWS V14.00,2013-08-26 01:40:00,
2013-08-25 20:45:00,70.6,64.5,30.14,SSW,199,0.0,0.0,81,0.00,,---,0.00,VWS V14.00,2013-08-26 01:45:00,
2013-08-25 20:50:00,70.4,64.3,30.14,SSW,199,0.0,0.0,81,0.00,,---,0.00,VWS V14.00,2013-08-26 01:50:00,
2013-08-25 20:55:00,70.4,64.3,30.14,SSW,199,0.0,0.0,81,0.00,,---,0.00,VWS V14.00,2013-08-26 01:55:00,
2013-08-25 21:00:00,70.3,64.6,30.14,SSW,199,0.0,0.0,82,0.00,,---,0.00,VWS V14.00,2013-08-26 02:00:00,
2013-08-25 21:05:00,70.1,64.4,30.15,SSW,199,0.0,0.0,82,0.00,,---,0.00,VWS V14.00,2013-08-26 02:05:00,
2013-08-25 21:10:00,69.9,64.2,30.15,SSW,199,0.0,0.0,82,0.00,,---,0.00,VWS V14.00,2013-08-26 02:10:00,
2013-08-25 21:15:00,69.8,64.1,30.14,SSW,199,0.0,0.0,82,0.00,,---,0.00,VWS V14.00,2013-08-26 02:15:00,
2013-08-25 21:20:00,69.6,64.2,30.14,SSW,199,0.0,0.0,83,0.00,,---,0.00,VWS V14.00,2013-08-26 02:20:00,
2013-08-25 21:25:00,69.4,64.0,30.14,SSW,199,0.0,0.0,83,0.00,,---,0.00,VWS V14.00,2013-08-26 02:25:00,
2013-08-25 21:30:00,69.4,64.0,30.15,SSW,199,0.0,0.0,83,0.00,,---,0.00,VWS V14.00,2013-08-26 02:30:00,
2013-08-25 21:35:00,69.3,63.9,30.15,SSW,199,0.0,0.0,83,0.00,,---,0.00,VWS V14.00,2013-08-26 02:35:00,
2013-08-25 21:40:00,69.1,64.1,30.15,SSW,199,0.0,0.0,84,0.00,,---,0.00,VWS V14.00,2013-08-26 02:40:00,
2013-08-25 21:45:00,68.8,63.8,30.14,SSW,199,0.0,0.0,84,0.00,,---,0.00,VWS V14.00,2013-08-26 02:45:00,
2013-08-25 21:50:00,68.6,63.9,30.14,SSW,199,0.0,0.0,85,0.00,,---,0.00,VWS V14.00,2013-08-26 02:50:00,
2013-08-25 21:56:00,68.4,63.7,30.14,SSW,199,0.0,0.0,85,0.00,,---,0.00,VWS V14.00,2013-08-26 02:56:00,
2013-08-25 22:01:00,68.4,64.1,30.15,SSW,199,0.0,0.0,86,0.00,,---,0.00,VWS V14.00,2013-08-26 03:01:00,
2013-08-25 22:06:00,68.4,64.1,30.15,SSW,199,0.0,0.0,86,0.00,,---,0.00,VWS V14.00,2013-08-26 03:06:00,
2013-08-25 22:11:00,68.3,64.0,30.15,SSW,199,0.0,0.0,86,0.00,,---,0.00,VWS V14.00,2013-08-26 03:11:00,
2013-08-25 22:16:00,68.1,63.8,30.15,SSW,199,0.0,0.0,86,0.00,,---,0.00,VWS V14.00,2013-08-26 03:16:00,
2013-08-25 22:21:00,67.9,63.6,30.15,SSW,199,0.0,0.0,86,0.00,,---,0.00,VWS V14.00,2013-08-26 03:21:00,
2013-08-25 22:26:00,67.6,63.3,30.15,SSW,199,0.0,0.0,86,0.00,,---,0.00,VWS V14.00,2013-08-26 03:26:00,
2013-08-25 22:31:00,67.3,63.0,30.15,SSW,199,0.0,0.0,86,0.00,,---,0.00,VWS V14.00,2013-08-26 03:31:00,
2013-08-25 22:36:00,66.9,62.6,30.15,SSW,199,0.0,0.0,86,0.00,,---,0.00,VWS V14.00,2013-08-26 03:36:00,
2013-08-25 22:41:00,66.6,62.6,30.15,SSW,199,0.0,0.0,87,0.00,,---,0.00,VWS V14.00,2013-08-26 03:41:00,
2013-08-25 22:46:00,66.4,62.4,30.15,SSW,199,0.0,0.0,87,0.00,,---,0.00,VWS V14.00,2013-08-26 03:46:00,
2013-08-25 22:51:00,66.3,62.6,30.15,SSW,199,0.0,0.0,88,0.00,,---,0.00,VWS V14.00,2013-08-26 03:51:00,
2013-08-25 22:56:00,66.1,62.5,30.15,SSW,199,0.0,0.0,88,0.00,,---,0.00,VWS V14.00,2013-08-26 03:56:00,
2013-08-25 23:01:00,66.1,62.5,30.14,SSW,199,0.0,0.0,88,0.00,,---,0.00,VWS V14.00,2013-08-26 04:01:00,
2013-08-25 23:02:00,66.1,62.8,30.14,SSW,199,0.0,0.0,89,0.00,,---,0.00,VWS V14.00,2013-08-26 04:02:00,
2013-08-25 23:07:00,66.1,62.8,30.14,SSW,199,0.0,0.0,89,0.00,,---,0.00,VWS V14.00,2013-08-26 04:07:00,
2013-08-25 23:13:00,66.1,63.1,30.14,SSW,199,0.0,0.0,90,0.00,,---,0.00,VWS V14.00,2013-08-26 04:13:00,
2013-08-25 23:18:00,66.3,63.3,30.14,SSW,199,0.0,0.0,90,0.00,,---,0.00,VWS V14.00,2013-08-26 04:18:00,
2013-08-25 23:23:00,66.4,63.4,30.14,SSW,199,0.0,0.0,90,0.00,,---,0.00,VWS V14.00,2013-08-26 04:23:00,
2013-08-25 23:28:00,66.4,63.7,30.14,SSW,199,0.0,0.0,91,0.00,,---,0.00,VWS V14.00,2013-08-26 04:28:00,
2013-08-25 23:33:00,66.4,63.7,30.14,SSW,199,0.0,0.0,91,0.00,,---,0.00,VWS V14.00,2013-08-26 04:33:00,
2013-08-25 23:38:00,66.4,63.7,30.14,SSW,199,0.0,0.0,91,0.00,,---,0.00,VWS V14.00,2013-08-26 04:38:00,
2013-08-25 23:43:00,66.3,63.6,30.14,SSW,199,0.0,0.0,91,0.00,,---,0.00,VWS V14.00,2013-08-26 04:43:00,
2013-08-25 23:48:00,66.1,63.4,30.15,SSW,199,0.0,0.0,91,0.00,,---,0.00,VWS V14.00,2013-08-26 04:48:00,
2013-08-25 23:53:00,66.0,63.3,30.15,SSW,199,0.0,0.0,91,0.00,,---,0.00,VWS V14.00,2013-08-26 04:53:00,
2013-08-25 23:59:00,65.6,62.9,30.15,SSW,199,0.0,0.0,91,0.00,,---,0.00,VWS V14.00,2013-08-26 04:59:00,